User: anonymous   Login
Location: Pensacola
(30.4142°N, 87.2155°W)
Time: 04:52:55
(UTC-05:00)
Language:

XW-2D - Orbit

View from above orbital plane
View from above orbital plane
View from above satellite
View from above satellite

Ground track
Ground track

The orbit data is extracted from the following two-line orbital elements,

1 40907U 15049J   24259.92682776  .00164897  00000-0  15787-2 0  9993
2 40907  97.4639 283.4326 0001164 331.1083  29.0112 15.66152779498813
Epoch (UTC): 15 September 2024 22:14:37
Eccentricity: 0.0001164
inclination: 97.4639°
perigee height: 369 km
apogee height: 371 km
right ascension of ascending node: 283.4326°
argument of perigee: 331.1083°
revolutions per day: 15.66152779
mean anomaly at epoch: 29.0112°
orbit number at epoch: 49881

The dashed part of the orbit path shows where the satellite is in the earth's shadow,  

DLR